TimeCDT,TemperatureF,Dew PointF,Humidity,Sea Level PressureIn,VisibilityMPH,Wind Direction,Wind SpeedMPH,Gust SpeedMPH,PrecipitationIn,Events,Conditions,WindDirDegrees,DateUTC
12:52 AM,54.0,46.0,75,30.13,10.0,North,5.8,-,N/A,,Clear,10,2012-09-08 05:52:00
1:52 AM,52.0,45.0,77,30.14,10.0,North,4.6,-,N/A,,Clear,360,2012-09-08 06:52:00
2:52 AM,50.0,45.0,83,30.14,10.0,North,4.6,-,N/A,,Clear,10,2012-09-08 07:52:00
3:52 AM,53.1,45.0,74,30.14,10.0,Calm,Calm,-,N/A,,Clear,0,2012-09-08 08:52:00
4:52 AM,51.8,46.4,82,30.15,10.0,Calm,Calm,-,N/A,,Clear,0,2012-09-08 09:52:00
5:52 AM,50.0,46.0,86,30.15,10.0,Calm,Calm,-,N/A,,Clear,0,2012-09-08 10:52:00
6:52 AM,48.9,44.1,83,30.16,10.0,Calm,Calm,-,N/A,,Clear,0,2012-09-08 11:52:00
7:52 AM,53.1,46.0,77,30.18,10.0,Calm,Calm,-,N/A,,Clear,0,2012-09-08 12:52:00
8:52 AM,57.9,45.0,62,30.17,10.0,Calm,Calm,-,N/A,,Partly Cloudy,0,2012-09-08 13:52:00
9:52 AM,64.0,45.0,50,30.16,10.0,West,4.6,-,N/A,,Partly Cloudy,270,2012-09-08 14:52:00
10:52 AM,70.0,44.1,39,30.14,10.0,West,11.5,-,N/A,,Partly Cloudy,260,2012-09-08 15:52:00
11:52 AM,73.0,43.0,34,30.12,10.0,West,9.2,-,N/A,,Partly Cloudy,280,2012-09-08 16:52:00
12:52 PM,77.0,42.1,29,30.08,10.0,West,15.0,-,N/A,,Partly Cloudy,270,2012-09-08 17:52:00
1:52 PM,80.1,42.1,26,30.05,10.0,West,6.9,-,N/A,,Partly Cloudy,270,2012-09-08 18:52:00
2:52 PM,82.0,37.0,20,30.02,10.0,West,17.3,27.6,N/A,,Partly Cloudy,280,2012-09-08 19:52:00
3:16 PM,82.4,35.6,19,30.02,10.0,NW,18.4,25.3,N/A,,Partly Cloudy,310,2012-09-08 20:16:00
3:52 PM,84.0,36.0,18,29.99,10.0,NW,16.1,23.0,N/A,,Mostly Cloudy,320,2012-09-08 20:52:00
4:52 PM,84.9,37.0,18,29.96,10.0,NNW,12.7,18.4,N/A,,Mostly Cloudy,330,2012-09-08 21:52:00
5:52 PM,84.9,37.9,19,29.94,10.0,WNW,16.1,20.7,N/A,,Scattered Clouds,300,2012-09-08 22:52:00
6:52 PM,82.9,39.9,22,29.93,10.0,NW,11.5,-,N/A,,Scattered Clouds,310,2012-09-08 23:52:00
7:52 PM,72.0,42.1,34,29.94,10.0,NW,6.9,-,N/A,,Scattered Clouds,320,2012-09-09 00:52:00
8:52 PM,70.0,50.0,49,29.96,10.0,Calm,Calm,-,N/A,,Scattered Clouds,0,2012-09-09 01:52:00
9:52 PM,72.0,43.0,35,29.99,10.0,North,11.5,-,N/A,,Scattered Clouds,360,2012-09-09 02:52:00
10:52 PM,66.9,44.1,44,30.03,10.0,North,13.8,-,N/A,,Clear,10,2012-09-09 03:52:00
11:52 PM,66.0,41.0,40,30.06,10.0,North,11.5,-,N/A,,Clear,10,2012-09-09 04:52:00